Location: Long Barn
(38.0930°N, 120.1344°W)
Time: 23:40:41
(UTC+00:00)

BlueWalker 3 - Visible Passes

Search period start: 07 October 2024 00:00
Search period end: 17 October 2024 00:00
Orbit: 473 x 485 km, 53.2° (Epoch: 07 October)

Date Brightness Start Highest point End Pass type
(mag) Time Alt. Az. Time Alt. Az. Time Alt. Az.
07 Oct 3.3 11:58:22 32° NNE 11:58:22 32° NNE 12:00:34 10° NE visible
07 Oct 4.1 13:33:44 10° NW 13:35:33 13° NNW 13:37:22 10° N visible
08 Oct 4.6 11:31:29 16° NE 11:31:29 16° NE 11:32:20 10° NE visible
08 Oct 4.0 13:05:42 11° NW 13:07:14 14° NNW 13:09:15 10° N visible
09 Oct 3.9 12:38:42 15° NNW 12:38:52 15° NNW 12:41:05 10° NNE visible
10 Oct 4.2 12:11:37 14° N 12:11:37 14° N 12:12:51 10° NNE visible
11 Oct 4.8 11:44:28 11° NNE 11:44:28 11° NNE 11:44:35 10° NNE visible
